Location: Barenton-Bugny
(49.6333°N, 3.6514°E)
Time: 17:20:52
(UTC+00:00)

Daily predictions for brighter satellites

Satellite Brightness Start Highest point End
(mag) Time Altitude Azimuth Time Altitude Azimuth Time Altitude Azimuth
SL-8 R/B 3.7 20:15:12 10° WSW 20:20:00 76° S 20:24:50 10° E
STARLINK-1091 3.8 20:16:38 10° WNW 20:20:48 76° NNE 20:24:56 10° ESE
Meteor 1-18 Rocket 4.3 20:15:38 10° S 20:21:13 90° ESE 20:26:57 10° NNE
MetOp-B 4.2 20:16:12 10° SSE 20:21:32 73° ENE 20:26:54 10° NNW
STARLINK-1232 3.6 20:18:03 10° SW 20:22:08 63° SSE 20:26:15 10° ENE
STARLINK-1097 4.4 20:18:48 10° WNW 20:22:52 52° N 20:26:56 10° E
STARLINK-1066 4.3 20:19:29 10° WNW 20:23:25 43° SW 20:27:21 10° SE
SPOT 5 4.1 20:19:55 10° SE 20:24:31 33° ENE 20:29:15 10° N
STARLINK-1072 3.7 20:21:38 10° WNW 20:25:48 79° NNE 20:29:57 10° ESE
COSMOS 2406 3.5 20:20:37 10° NNW 20:26:23 70° WSW 20:32:06 10° SSE
STARLINK-1208 3.6 20:23:00 10° SW 20:27:06 67° SSE 20:31:14 10° ENE
Cosmos 2221 Rocket 4.0 20:23:15 10° SSE 20:27:34 46° E 20:31:56 10° NNE
Intercosmos 24 4.2 20:24:01 10° N 20:27:37 43° ENE 20:31:04 10° SSE
STARLINK-1099 4.4 20:23:49 10° WNW 20:27:53 53° N 20:31:58 10° E
Landsat 7 4.1 20:23:39 10° SSE 20:28:18 56° ENE 20:32:58 10° N
STARLINK-1081 4.4 20:24:28 10° WNW 20:28:21 40° SW 20:32:14 10° SSE
STARLINK-1096 3.7 20:26:37 10° WNW 20:30:47 83° NNE 20:34:56 10° ESE
USA 245 2.9 20:27:47 10° SSE 20:31:03 54° ENE 20:33:45 10° N
STARLINK-1271 3.6 20:27:57 10° SW 20:32:04 71° SSE 20:36:13 10° ENE
Meteor 2-4 Rocket 3.7 20:27:04 10° S 20:32:20 61° E 20:37:37 10° NNE
Cosmos 1782 Rocket 4.3 20:28:17 10° NNW 20:32:41 56° W 20:37:03 10° S
STARLINK-1104 4.4 20:28:47 10° WNW 20:32:51 53° N 20:36:56 10° E
STARLINK-1079 3.7 20:31:36 10° WNW 20:35:46 86° NNE 20:39:55 10° ESE
NOSS 2-3 (D) 3.7 20:31:56 10° SW 20:36:16 89° SE 20:41:31 10° NE
STARLINK-1154 3.5 20:32:53 10° WSW 20:37:01 75° SSE 20:41:10 10° ENE
Meteor 1-12 Rocket 4.3 20:32:04 10° N 20:37:44 73° ENE 20:43:24 10° SSE
STARLINK-1144 4.3 20:33:48 10° WNW 20:37:53 54° N 20:41:57 10° E
Sich 1 Rocket 3.9 20:33:19 10° NNW 20:37:55 74° W 20:42:30 10° S
Resurs 01 Rocket 2.4 20:34:09 10° S 20:38:29 51° W 20:42:51 10° NNW
STARLINK-1116 3.6 20:36:34 10° WNW 20:40:44 90° S 20:44:53 10° ESE
USA 215 4.1 20:35:16 10° E 20:41:34 51° NNE 20:47:51 10° WNW
STARLINK-1197 3.6 20:37:51 10° WSW 20:42:00 79° SSE 20:46:09 10° ENE
STARLINK-1103 4.3 20:38:47 10° WNW 20:42:52 55° N 20:46:57 10° E
Cosmos 1452 Rocket 3.9 20:38:37 10° S 20:43:35 43° ESE 20:48:35 10° NE
STARLINK-1236 4.4 20:41:01 10° SSW 20:44:36 29° SE 20:48:12 10° E
Meteor 1-13 Rocket 4.5 20:39:20 10° S 20:44:45 53° E 20:50:19 10° NNE
Abrixas rocket 1.8 20:42:51 10° W 20:45:48 71° S 20:48:45 10° E
STARLINK-1198 3.6 20:42:51 10° WSW 20:47:00 84° SSE 20:51:09 10° ENE
Cosmos 1420 Rocket 4.0 20:42:06 10° S 20:47:14 64° ESE 20:52:23 10° NNE
USA 229 DEB 4.4 20:41:06 10° WSW 20:47:36 60° NW 20:54:32 10° NE
USA 229 4.4 20:41:13 10° WSW 20:47:43 60° NW 20:54:39 10° NE
STARLINK-1101 4.3 20:43:46 10° WNW 20:47:52 56° N 20:51:57 10° E
ERBS 2.4 20:45:26 10° SW 20:48:38 50° SE 20:51:52 10° ENE
Okean 2 Rocket 3.1 20:45:39 10° N 20:50:07 87° W 20:54:32 10° S
Cosmos 2279 Rocket 4.0 20:44:13 10° N 20:50:30 80° E 20:56:44 10° SSE
STARLINK-1094 3.6 20:46:33 10° WNW 20:50:43 82° SSW 20:54:40 11° ESE
STARLINK-1199 3.6 20:47:49 10° WSW 20:51:58 88° SSE 20:56:08 10° ENE
STARLINK-1102 4.2 20:48:46 10° WNW 20:52:52 57° N 20:56:58 10° E
CENTAUR R/B 4.3 20:46:44 10° NW 20:53:38 37° NNE 21:01:23 10° E
NOSS 3-1 (C) 4.5 20:48:28 10° WSW 20:54:01 51° NW 21:00:35 10° NE
STARLINK-1269 4.2 20:50:43 10° SSW 20:54:27 33° SE 20:58:12 10° ENE
STARLINK-1117 3.6 20:51:31 10° WNW 20:55:41 78° SSW 20:59:26 12° ESE
NOSS 3-1 (A) 3.9 20:51:01 10° SW 20:56:37 67° NW 21:03:17 10° NE
Cosmos 2082 Rocket 2.3 20:51:02 10° NNW 20:56:49 86° ENE 21:01:58 13° SSE
CZ-2C R/B 4.0 20:51:34 10° N 20:56:51 44° WNW 21:02:08 10° SW
STARLINK-1210 3.6 20:52:47 10° WSW 20:56:56 89° NNW 21:01:06 10° ENE
STARLINK-1111 4.2 20:53:45 10° WNW 20:57:51 58° N 21:01:58 10° E
SL-4 R/B 1.5 20:55:38 10° NW 20:58:48 63° WSW 21:01:02 16° SSE
Cosmos 1833 Rocket 3.1 20:53:20 10° NW 20:58:53 61° WSW 21:04:18 10° SSE
STARLINK-1200 4.2 20:55:38 10° SSW 20:59:26 36° SE 21:03:14 10° ENE
Okean 1 Rocket 3.8 20:55:36 10° N 20:59:52 41° ENE 21:03:19 14° SE
STARLINK-1078 3.6 20:56:31 10° WNW 21:00:41 74° SSW 21:04:14 14° ESE
STARLINK-1212 3.8 20:57:46 10° W 21:00:49 51° NNW 21:03:52 10° ENE
STARLINK-1105 3.8 20:58:14 10° W 21:01:17 51° NNW 21:04:20 10° ENE
STARLINK-1219 3.7 20:57:45 10° WSW 21:01:55 85° NNW 21:06:05 10° ENE
STARLINK-1247 3.8 20:59:06 10° W 21:02:10 51° NNW 21:05:14 10° ENE
STARLINK-1227 3.8 20:59:36 10° W 21:02:38 51° NNW 21:05:41 10° ENE
STARLINK-1073 4.1 20:58:44 10° WNW 21:02:51 60° NNE 21:06:57 10° E
STARLINK-1226 3.8 21:00:29 10° W 21:03:32 51° NNW 21:06:36 10° ENE
Cosmos 2151 Rocket 3.6 20:59:19 10° N 21:03:53 89° W 21:08:09 12° S
STARLINK-1192 4.1 21:00:33 10° SSW 21:04:23 38° SE 21:08:15 10° ENE
STARLINK-1215 3.8 21:01:22 10° W 21:04:26 50° NNW 21:07:30 10° ENE
STARLINK-1234 4.0 21:02:01 10° W 21:05:10 47° N 21:08:20 10° ENE
STARLINK-1108 3.6 21:01:30 10° WNW 21:05:38 69° SSW 21:09:00 15° SE
STARLINK-1217 3.8 21:03:11 10° W 21:06:14 50° NNW 21:09:17 10° ENE
STARLINK-1211 3.7 21:02:45 10° WSW 21:06:54 81° NNW 21:11:04 10° ENE
STARLINK-1229 3.8 21:04:04 10° W 21:07:07 49° N 21:10:11 10° ENE
STARLINK-1121 4.1 21:03:44 10° WNW 21:07:51 61° NNE 21:11:58 10° E
STARLINK-1270 3.9 21:04:58 10° W 21:08:02 49° N 21:11:06 10° ENE
IGS 5A 3.9 21:04:46 10° S 21:08:52 61° W 21:13:01 10° NNW
STARLINK-1244 4.0 21:05:27 10° SW 21:09:20 41° SE 21:13:15 10° ENE
STARLINK-1189 3.9 21:06:49 10° W 21:09:51 49° N 21:12:55 10° ENE
STARLINK-1071 3.7 21:06:29 10° WNW 21:10:37 65° SSW 21:13:47 16° SE
STARLINK-1188 3.9 21:07:42 10° W 21:10:45 48° N 21:13:48 10° ENE
STARLINK-1235 4.0 21:08:28 10° W 21:11:28 45° N 21:14:29 10° ENE
Cosmos 1943 Rocket 3.7 21:09:27 13° SE 21:11:49 17° E 21:15:17 10° ENE
STARLINK-1245 3.8 21:07:44 10° WSW 21:11:53 78° NNW 21:16:03 10° ENE
STARLINK-1187 4.0 21:08:53 10° W 21:11:53 46° N 21:14:54 10° ENE
CZ-4B DEB 4.5 21:09:47 14° S 21:12:33 72° WSW 21:15:55 10° NNW
Cosmos 2369 Rocket 4.0 21:10:39 11° ESE 21:12:34 13° E 21:14:54 10° ENE
STARLINK-1106 4.0 21:08:42 10° WNW 21:12:49 63° NNE 21:16:56 10° E
Terra 2.1 21:09:16 15° SE 21:13:04 57° ENE 21:17:45 10° N
STARLINK-1191 3.9 21:10:10 10° W 21:13:12 47° N 21:16:14 10° ENE
ISS -3.4 21:10:13 10° WNW 21:13:29 49° SSW 21:15:35 19° SE
STARLINK-1221 3.9 21:11:04 10° W 21:14:06 47° N 21:17:07 10° ENE
STARLINK-1138 3.9 21:10:21 10° SW 21:14:17 44° SE 21:18:14 10° ENE
SPOT 1/Viking Rocket 3.8 21:09:30 11° S 21:14:32 70° WSW 21:19:42 10° NNW
STARLINK-1110 3.7 21:10:31 10° WNW 21:14:37 62° SSW 21:17:39 17° SE
STARLINK-1222 3.9 21:11:59 10° W 21:15:00 47° N 21:18:01 10° ENE
Cosmos 1741 Rocket 4.0 21:10:01 10° NNW 21:15:18 90° S 21:19:31 16° SSE
Okean 3 4.2 21:11:39 10° SSW 21:15:53 55° WNW 21:20:08 10° N
STARLINK-1214 3.9 21:12:55 10° W 21:15:56 47° N 21:18:57 10° ENE
SeaSat 1 4.0 21:13:10 10° ENE 21:16:28 18° ESE 21:18:10 15° SE
STARLINK-1233 3.8 21:12:43 10° WSW 21:16:52 75° NNW 21:21:01 10° ENE
Crew Dragon 0.8 21:15:11 10° W 21:17:15 36° SSW 21:17:56 28° SSE
STARLINK-1209 4.1 21:14:22 10° W 21:17:30 45° N 21:20:40 10° ENE
STARLINK-1112 4.0 21:13:41 10° WNW 21:17:49 65° NNE 21:21:57 10° E
Cosmos 1805 4.2 21:14:34 10° N 21:18:14 36° ENE 21:20:39 18° SE
STARLINK-1143 3.8 21:15:15 10° SW 21:19:14 47° SE 21:23:13 10° ENE
STARLINK-1124 3.8 21:16:26 10° WNW 21:20:31 58° SSW 21:23:20 19° SE
CARTOSAT-1 3.6 21:18:14 15° SSE 21:21:47 83° WSW 21:26:08 10° NNW
STARLINK-1204 3.9 21:17:43 10° WSW 21:21:52 72° NNW 21:26:01 10° ENE
deb Kosmos-1763 4.3 21:18:41 10° NNW 21:22:15 58° ENE 21:24:30 21° SE
Cosmos 1066 Rocket 4.3 21:17:31 13° S 21:22:16 56° E 21:27:31 10° NNE
STARLINK-1128 3.9 21:18:41 10° WNW 21:22:50 67° NNE 21:26:58 10° E
Cosmos 1461 3.5 21:19:51 13° S 21:23:09 35° ESE 21:27:07 10° NE
STARLINK-1241 3.7 21:20:12 10° SW 21:24:12 50° SSE 21:28:14 10° ENE
ERS-1 Rocket 3.1 21:20:07 14° S 21:24:29 76° WSW 21:29:33 10° NNW
Cosmos 371 Rocket 3.3 21:19:43 10° SSW 21:24:35 88° WNW 21:29:30 10° NNE
Lacrosse 5 2.3 21:20:31 10° WNW 21:25:24 49° SW 21:28:51 18° SSE
STARLINK-1122 3.9 21:21:26 10° WNW 21:25:29 54° SSW 21:28:07 20° SE
STARLINK-1203 3.7 21:22:01 10° SW 21:26:07 53° SSE 21:30:12 10° ENE
STARLINK-1238 3.9 21:22:43 10° W 21:26:52 70° NNW 21:31:00 10° ENE
Cosmos 1850 Rocket 4.2 21:22:05 10° NNW 21:27:26 71° WSW 21:31:37 17° S
STARLINK-1113 3.9 21:23:40 10° WNW 21:27:49 70° NNE 21:31:54 10° E
STARLINK-1239 3.7 21:25:07 10° SW 21:29:09 54° SSE 21:33:12 10° ENE
NOSS 3-2 (A) 4.4 21:22:01 10° NW 21:29:10 60° NE 21:37:05 11° ESE
STARLINK-1126 3.9 21:26:13 10° WNW 21:30:15 50° SSW 21:32:43 21° SE
STARLINK-1201 4.0 21:27:43 10° W 21:31:52 67° NNW 21:36:00 10° ENE
Cosmos 2278 Rocket 2.9 21:26:31 10° SW 21:32:06 58° NW 21:37:44 10° NNE
STARLINK-1119 3.8 21:28:38 10° WNW 21:32:48 72° NNE 21:36:41 12° ESE
STARLINK-1240 3.6 21:30:05 10° SW 21:34:08 58° SSE 21:38:14 10° ENE
MTI 4.2 21:31:46 10° NNE 21:34:48 42° E 21:36:06 26° SSE
STARLINK-1082 4.0 21:31:24 10° WNW 21:35:24 47° SW 21:37:40 23° SSE
Cosmos 1110 Rocket 4.3 21:31:28 15° S 21:35:27 48° ESE 21:40:25 10° NNE
Meteor 1-15 Rocket 4.4 21:30:37 10° NNW 21:36:34 81° W 21:41:21 16° S
STARLINK-1206 4.1 21:32:43 10° W 21:36:51 65° NNW 21:40:59 10° ENE
STARLINK-1114 3.7 21:33:37 10° WNW 21:37:47 75° NNE 21:41:27 13° ESE
USA 238 DEB 4.2 21:31:25 10° NW 21:38:31 63° NE 21:45:11 13° ESE
USA 238 4.2 21:31:31 10° NW 21:38:37 63° NE 21:45:18 13° ESE
STARLINK-1216 3.6 21:35:01 10° SW 21:39:05 61° SSE 21:43:12 10° ENE
STARLINK-1100 4.1 21:36:25 10° WNW 21:40:23 44° SW 21:42:28 24° SSE
STARLINK-1228 4.2 21:38:17 10° WNW 21:41:37 45° N 21:44:55 10° ENE
STARLINK-1205 4.1 21:37:43 10° W 21:41:51 63° NNW 21:45:58 10° ENE
STARLINK-1130 (DARKSAT) 3.7 21:38:38 10° WNW 21:42:47 78° NNE 21:46:16 14° ESE
STARLINK-1237 3.5 21:39:57 10° SW 21:44:03 65° SSE 21:48:11 10° ENE
STARLINK-1083 4.2 21:41:24 10° WNW 21:45:19 41° SW 21:47:14 25° SSE
STARLINK-1218 4.2 21:42:43 10° W 21:46:50 61° NNW 21:50:57 10° ENE
Cosmos 1437 Rocket 3.3 21:43:36 10° SSW 21:47:18 53° WNW 21:51:04 10° N
STARLINK-1084 3.6 21:43:35 10° WNW 21:47:45 81° NNE 21:51:01 16° ESE
STARLINK-1202 3.5 21:44:56 10° SW 21:49:03 70° SSE 21:53:11 10° ENE
STARLINK-1125 4.3 21:46:25 10° WNW 21:50:16 38° SW 21:52:01 25° SSE
NOSS 8 (F) 4.0 21:48:17 10° SW 21:51:27 89° SE 21:54:31 10° NE
STARLINK-1254 4.2 21:47:43 10° W 21:51:50 60° N 21:55:56 10° ENE
STARLINK-1098 3.6 21:48:34 10° WNW 21:52:44 85° NNE 21:55:48 18° ESE
STARLINK-1109 4.4 21:51:26 10° WNW 21:55:14 36° SW 21:56:48 26° S
Cosmos 1331 Rocket 4.0 21:52:17 17° S 21:56:10 64° ESE 22:01:19 10° NNE
STARLINK-1231 4.3 21:52:42 10° W 21:56:48 58° N 22:00:55 10° ENE
Cosmos 1674 Rocket 4.3 21:52:56 10° SSW 21:57:11 51° WNW 22:01:30 10° N
STARLINK-1123 3.6 21:53:33 10° WNW 21:57:43 89° N 22:00:35 19° ESE
Aureole 2 Rocket 2.0 21:56:35 22° SSW 21:58:27 85° WNW 22:01:30 10° NNE
STARLINK-1246 3.5 21:54:51 10° WSW 21:59:00 78° SSE 22:03:09 10° ENE
Okean 2 3.6 21:57:29 27° SSE 21:59:28 53° E 22:03:31 10° NNE
BREEZE-M DEB (TANK) 4.1 21:48:21 10° WNW 22:01:22 56° SW 22:04:24 23° SSE
STARLINK-1232 4.3 21:57:44 10° W 22:01:49 57° N 22:05:55 10° ENE
SPOT 5 3.9 21:58:23 15° SSW 22:02:25 43° W 22:07:31 10° NNW
SL-8 R/B 3.7 21:57:41 10° W 22:02:28 66° SSW 22:06:00 18° ESE
Cosmos 1378 Rocket 4.1 21:58:46 13° SSW 22:02:39 58° WNW 22:07:00 10° N
STARLINK-1097 3.5 21:58:32 10° WNW 22:02:42 87° SSW 22:05:22 21° ESE
STARLINK-1224 3.5 21:59:48 10° WSW 22:03:58 82° SSE 22:08:07 10° ENE
Cosmos 304 Rocket 3.9 22:01:09 10° SSW 22:05:54 77° WNW 22:10:44 10° NNE
STARLINK-1208 4.3 22:02:43 10° W 22:06:49 56° N 22:10:55 10° ENE
STARLINK-1099 3.5 22:03:32 10° WNW 22:07:41 83° SSW 22:10:10 23° ESE
Cosmos 1271 Rocket 4.3 22:07:09 20° ESE 22:08:02 21° E 22:11:02 10° NE
Cosmos 1766 3.3 22:04:17 10° NNW 22:08:15 75° W 22:10:13 29° S
STARLINK-1225 3.5 22:04:47 10° WSW 22:08:56 86° SSE 22:13:06 10° ENE
Cosmos 1733 3.1 22:05:37 10° N 22:09:29 88° E 22:11:07 33° S
STARLINK-1271 4.4 22:07:43 10° W 22:11:49 55° N 22:15:54 10° ENE
Cosmos 1553 Rocket 4.4 22:06:02 10° N 22:12:12 52° ENE 22:16:01 23° SE
STARLINK-1104 3.5 22:08:29 10° WNW 22:12:38 79° SSW 22:14:55 26° ESE
BREEZE-M DEB (TANK) 3.6 21:59:14 10° WSW 22:13:43 67° SSE 22:17:34 10° E
STARLINK-1230 3.5 22:09:45 10° WSW 22:13:54 90° WSW 22:18:04 10° ENE
Cosmos 2026 Rocket 4.1 22:11:34 23° S 22:15:41 69° E 22:22:00 10° NNE
Cosmos 1707 4.2 22:15:44 21° ESE 22:16:40 23° E 22:19:47 10° NE
Cosmos 1975 Rocket 3.0 22:14:27 28° S 22:16:45 74° E 22:21:11 10° NNE
STARLINK-1154 4.4 22:12:42 10° W 22:16:47 54° N 22:20:52 10° ENE
STARLINK-1144 3.5 22:13:29 10° WNW 22:17:38 75° SSW 22:19:43 28° SE
STARLINK-1243 3.6 22:14:44 10° WSW 22:18:53 86° NNW 22:23:04 10° ENE
Abrixas rocket 2.6 22:18:21 10° W 22:20:46 37° SW 22:20:46 37° SW
EXPRESS MD2 4.0 22:17:31 10° WSW 22:21:27 67° SSE 22:29:37 10° ENE
NOSS 8 (H) 4.2 22:19:13 17° SW 22:21:29 77° NW 22:24:35 10° NE
SL-27 R/B 2.7 22:17:56 10° NNW 22:21:32 60° ENE 22:22:47 35° SE
STARLINK-1197 4.4 22:17:42 10° W 22:21:47 53° N 22:25:51 10° ENE
STARLINK-1103 3.5 22:18:28 10° WNW 22:22:36 71° SSW 22:24:30 30° SE
STARLINK-1236 3.6 22:19:44 10° WSW 22:23:53 83° NNW 22:28:04 10° ENE
USA 215 3.3 22:18:24 13° ESE 22:24:18 88° NE 22:30:54 10° WNW
ERBS 4.0 22:21:58 10° W 22:25:03 34° NNW 22:28:09 10° NE
STARLINK-1198 4.4 22:22:43 10° W 22:26:48 53° N 22:30:52 10° ENE
STARLINK-1101 3.6 22:23:27 10° WNW 22:27:34 67° SSW 22:29:17 33° SE
Cosmos 1953 3.7 22:24:25 10° N 22:27:55 28° ENE 22:29:31 21° ESE
SL-4 R/B 2.4 22:28:19 24° ENE 22:28:19 24° ENE 22:29:58 10° N
Thor Agena Rocket 3.6 22:25:14 10° NNE 22:30:34 73° ESE 22:33:31 27° S
Cosmos 2297 4.1 22:26:05 10° SW 22:31:44 65° WNW 22:37:26 10° NNE
STARLINK-1199 4.4 22:27:43 10° W 22:31:47 52° N 22:35:52 10° ENE
NOSS 2-2 (D) 3.0 22:30:17 24° SW 22:32:19 82° SE 22:36:26 10° NE
STARLINK-1102 3.6 22:28:26 10° WNW 22:32:33 63° SSW 22:34:04 36° SE
STARLINK-1269 3.7 22:29:40 10° WSW 22:33:50 76° NNW 22:37:59 10° ENE
NOSS 3-2 (C) 4.1 22:28:52 10° NW 22:36:17 82° NE 22:42:46 19° SE
Cosmos 1378 4.4 22:34:05 17° SW 22:36:28 37° WNW 22:39:58 10° N
STARLINK-1210 4.5 22:32:43 10° W 22:36:47 52° N 22:40:51 10° ENE
STARLINK-1212 3.9 22:33:56 10° WNW 22:36:57 46° N 22:39:58 10° E
STARLINK-1105 3.9 22:34:25 10° WNW 22:37:26 46° N 22:40:26 10° E
STARLINK-1111 3.7 22:33:25 10° WNW 22:37:30 59° SSW 22:38:50 38° SSE
STARLINK-1247 3.9 22:35:16 10° WNW 22:38:18 46° N 22:41:21 10° E
STARLINK-1227 3.9 22:35:46 10° WNW 22:38:46 46° N 22:41:46 10° E
STARLINK-1200 3.8 22:34:41 10° WSW 22:38:50 73° NNW 22:43:00 10° ENE
Cosmos 1758 3.4 22:35:06 10° N 22:39:08 67° ENE 22:40:34 37° SSE
ATLAS CENTAUR R/B 3.8 22:38:17 10° NNW 22:39:16 13° NNE 22:40:22 10° NE
BREEZE-M DEB (TANK) 4.1 22:26:15 10° WNW 22:39:35 66° SSW 22:42:01 26° SE
Cosmos 292 Rocket 4.1 22:37:50 32° SSE 22:39:37 48° ESE 22:44:18 10° NNE
STARLINK-1226 3.9 22:36:38 10° WNW 22:39:40 46° N 22:42:41 10° E
Cosmos 2082 Rocket 4.2 22:36:29 10° WNW 22:40:08 18° W 22:43:46 10° SW
STARLINK-1215 3.9 22:37:32 10° WNW 22:40:35 47° N 22:43:34 10° E
COSMOS 2455 4.3 22:39:20 19° SE 22:40:46 20° ESE 22:45:01 10° ENE
STARLINK-1234 3.7 22:38:27 10° WNW 22:41:39 53° NNE 22:44:18 14° E
STARLINK-1219 4.5 22:37:42 10° WNW 22:41:46 52° N 22:45:50 10° ENE
STARLINK-1217 3.9 22:39:20 10° WNW 22:42:22 47° N 22:45:17 11° E
STARLINK-1073 3.7 22:38:24 10° WNW 22:42:28 55° SSW 22:43:37 40° SSE
EO 1 Del DPAF 3.1 22:38:49 10° NNE 22:42:37 88° WNW 22:44:01 38° SSW
STARLINK-1229 3.8 22:40:13 10° WNW 22:43:16 47° N 22:46:09 11° E
STARLINK-1192 3.9 22:39:41 10° WSW 22:43:50 70° NNW 22:48:00 10° ENE
STARLINK-1270 3.8 22:41:07 10° WNW 22:44:10 48° N 22:47:01 11° E
ATLAS 3B R/B 3.5 22:37:59 10° NW 22:44:32 49° NE 22:51:15 10° ESE
CENTAUR R/B 3.2 22:37:32 10° NW 22:45:28 82° NE 22:52:28 18° SE
STARLINK-1189 3.8 22:42:58 10° WNW 22:46:00 48° N 22:48:46 12° E
STARLINK-1211 4.5 22:42:42 10° WNW 22:46:47 52° N 22:50:51 10° ENE
STARLINK-1188 3.8 22:43:50 10° WNW 22:46:54 48° N 22:49:38 12° E
STARLINK-1121 3.8 22:43:24 10° WNW 22:47:27 52° SSW 22:48:24 41° SSE
Cosmos 1455 Rocket 3.4 22:43:18 10° NNW 22:47:34 56° W 22:49:22 31° SSW
STARLINK-1235 3.6 22:44:34 10° WNW 22:47:36 52° NNE 22:49:44 18° E
NOSS 3-4 (A) 4.2 22:45:53 26° SE 22:47:37 31° ESE 22:53:00 10° NE
NOSS 3-4 (C) 4.3 22:46:00 26° SE 22:47:44 31° ESE 22:53:06 10° NE
STARLINK-1187 3.7 22:44:59 10° WNW 22:48:02 50° NNE 22:50:22 15° E
STARLINK-1244 3.9 22:44:41 10° W 22:48:50 68° NNW 22:52:58 10° ENE
Cosmos 1025 Rocket 3.2 22:47:51 37° SSE 22:49:14 55° E 22:53:26 10° NNE
STARLINK-1191 3.8 22:46:18 10° WNW 22:49:20 49° N 22:51:55 13° E
Cosmos 1470 2.7 22:46:00 10° NNW 22:49:54 82° W 22:51:05 43° S
STARLINK-1221 3.8 22:47:12 10° WNW 22:50:14 49° N 22:52:46 14° E
NOSS 2-2 (E) 3.8 22:47:13 11° WSW 22:50:37 59° NW 22:54:53 10° NE
STARLINK-1222 3.7 22:48:05 10° WNW 22:51:08 49° N 22:53:39 14° E
Terra 3.7 22:48:09 12° SW 22:51:10 21° W 22:54:45 10° NW
BREEZE-M DEB (TANK) 4.3 22:47:33 14° SW 22:51:15 60° SE 23:06:32 10° ENE
STARLINK-1245 4.4 22:47:42 10° WNW 22:51:47 52° N 22:55:50 10° E
SL-4 R/B 3.7 22:52:56 23° ESE 22:52:56 23° ESE 22:55:55 10° E
STARLINK-1214 3.7 22:49:02 10° WNW 22:52:04 50° N 22:54:32 14° E
STARLINK-1106 3.9 22:48:22 10° WNW 22:52:23 48° SSW 22:53:10 42° S
STARLINK-1138 4.0 22:49:40 10° W 22:53:48 66° NNW 22:57:56 10° ENE
STARLINK-1209 3.5 22:50:52 10° WNW 22:54:05 60° NNE 22:56:06 21° E
SeaSat 1 2.5 22:49:33 10° NNE 22:54:31 81° WNW 22:57:55 20° SW
Cosmos 1943 Rocket 2.1 22:50:55 21° SSW 22:54:47 86° WNW 23:00:26 10° NNE
Cosmos 2369 Rocket 2.1 22:52:24 27° SSW 22:55:36 74° ESE 23:01:16 10° NNE
STARLINK-1233 4.4 22:52:42 10° WNW 22:56:46 52° N 23:00:50 10° E
STARLINK-1112 3.9 22:53:22 10° WNW 22:57:20 45° SW 22:57:57 42° S
STARLINK-1143 4.0 22:54:39 10° W 22:58:47 64° NNW 23:02:55 10° ENE
STARLINK-1204 4.4 22:57:43 10° WNW 23:01:47 53° N 23:05:51 10° E
Cosmos 1726 2.5 22:58:29 10° N 23:02:09 53° ENE 23:03:06 40° SE
Cosmos 1461 4.4 22:58:17 10° WSW 23:02:14 38° NW 23:06:24 10° NNE
STARLINK-1128 4.0 22:58:24 10° WNW 23:02:19 42° SW 23:02:45 40° SSW
STARLINK-1241 4.1 22:59:40 10° W 23:03:47 62° NNW 23:07:55 10° ENE
STARLINK-1203 4.2 23:01:45 10° W 23:05:55 61° NNW 23:10:06 10° ENE
Spot 4 4.3 23:04:36 30° SSW 23:06:41 51° W 23:11:26 10° NNW
STARLINK-1238 4.4 23:02:42 10° WNW 23:06:47 53° N 23:10:51 10° E
STARLINK-1113 4.1 23:03:23 10° WNW 23:07:16 39° SW 23:07:31 39° SSW
STARLINK-1239 4.2 23:04:39 10° W 23:08:46 60° NNW 23:12:53 10° ENE
STARLINK-1201 4.4 23:07:43 10° WNW 23:11:48 53° N 23:15:52 10° E
STARLINK-1119 4.2 23:08:23 10° WNW 23:12:12 36° SW 23:12:18 36° SW
STARLINK-1240 4.2 23:09:41 10° W 23:13:47 59° N 23:17:54 10° ENE
Cosmos 2228 4.1 23:10:07 10° N 23:14:04 35° ENE 23:15:48 25° ESE
NOSS 2-2 (C) 4.2 23:10:56 11° WSW 23:14:17 46° NW 23:18:24 10° NE
Cosmos 968 Rocket 3.6 23:10:29 10° NNW 23:15:36 63° WSW 23:17:39 35° S
ATLAS 2AS CENTAUR R/B 3.2 23:11:15 26° S 23:15:51 56° ESE 23:23:34 10° NE
Cosmos 1503 Rocket 4.0 23:11:03 10° NNW 23:16:22 84° WSW 23:18:45 34° SSE
Cosmos 1536 Rocket 3.4 23:14:55 40° S 23:16:26 89° W 23:20:49 10° N
STARLINK-1206 4.4 23:12:42 10° WNW 23:16:47 54° N 23:20:52 10° E
Cosmos 1242 Rocket 3.3 23:15:39 31° SW 23:16:57 46° WNW 23:20:32 10° N
STARLINK-1114 4.4 23:13:24 10° WNW 23:17:05 34° SW 23:17:05 34° SW
Meteor 2-8 Rocket 4.5 23:11:24 10° NNW 23:17:32 76° W 23:20:41 31° S
STARLINK-1228 3.2 23:15:16 10° WNW 23:18:42 77° NNE 23:20:09 32° ESE
STARLINK-1216 4.2 23:14:40 10° W 23:18:45 57° N 23:22:52 10° ENE
NOSS 3-2 (A) 4.4 23:13:00 10° NW 23:20:11 49° WSW 23:24:27 27° S
SJ 16-02 4.3 23:19:36 10° NNE 23:20:42 11° NE 23:21:50 10° ENE
STARLINK-1205 4.3 23:17:42 10° WNW 23:21:48 55° N 23:25:53 10° E
ALOS 2 2.7 23:21:50 39° SSW 23:23:18 64° WSW 23:27:41 10° NNW
STARLINK-1237 4.3 23:19:39 10° W 23:23:46 56° N 23:27:51 10° ENE
Cosmos 2292 Rocket 3.3 23:25:41 46° SSE 23:26:42 68° E 23:30:06 10° NNE
STARLINK-1218 4.3 23:22:41 10° WNW 23:26:47 56° N 23:30:53 10° E
Cosmos 2315 Rocket 4.1 23:21:04 10° N 23:27:16 68° ENE 23:30:38 28° SSE
ATLAS CENTAUR R/B 2.4 23:27:38 31° SE 23:27:56 31° ESE 23:31:37 10° ENE
STARLINK-1202 4.3 23:24:41 10° W 23:28:46 55° N 23:32:52 10° ENE
USA 238 DEB 4.4 23:22:40 10° NW 23:29:19 41° WSW 23:32:36 27° SSW
USA 238 4.4 23:22:46 10° NW 23:29:26 42° WSW 23:32:44 27° SSW
Cosmos 1626 4.2 23:29:00 15° ESE 23:29:53 17° E 23:32:17 10° NE
Cosmos 2058 Rocket 4.5 23:27:05 10° N 23:31:01 30° ENE 23:33:19 19° ESE
STARLINK-1254 4.2 23:27:41 10° WNW 23:31:47 57° N 23:35:53 10° E
Cosmos 1656 Rocket 3.6 23:30:19 32° SSW 23:32:58 74° ESE 23:38:33 10° NNE
Cosmos 1354 Rocket 4.0 23:27:52 10° NNW 23:33:09 70° WSW 23:35:20 36° S
Meteor 2-10 4.2 23:30:12 10° NNW 23:35:12 59° W 23:37:10 34° SSW
Cosmos 2263 4.2 23:32:55 26° SW 23:36:12 80° WNW 23:41:51 10° NNE
STARLINK-1231 4.2 23:32:39 10° WNW 23:36:46 59° N 23:40:52 10° E
RESURS DK-1 4.0 23:37:48 20° ESE 23:38:12 20° ESE 23:41:15 10° ENE
STARLINK-1246 4.4 23:34:41 10° W 23:38:46 54° N 23:42:51 10° ENE
Meteor 2-5 Rocket 4.4 23:36:21 27° SE 23:38:48 41° E 23:44:01 10° NNE
Cosmos 1867 3.5 23:34:33 10° NW 23:40:01 75° SW 23:42:36 32° SSE
Aureole 3 2.6 23:37:34 10° NNW 23:41:06 76° W 23:41:25 67° SSW
S3M 4.4 23:35:47 10° NNW 23:41:43 52° W 23:44:50 28° SSW
STARLINK-1232 4.1 23:37:40 10° WNW 23:41:47 60° NNE 23:45:53 10° E
STARLINK-1224 4.4 23:39:40 10° W 23:43:44 53° N 23:47:49 10° ENE
Cosmos 1271 Rocket 3.9 23:42:16 25° WSW 23:43:49 35° WNW 23:47:27 10° N
In-Cosmos 22 4.0 23:41:55 34° SSW 23:44:18 87° WNW 23:49:37 10° NNE
STARLINK-1208 4.1 23:42:38 10° WNW 23:46:46 62° NNE 23:50:53 10° E
STARLINK-1225 4.4 23:44:41 10° W 23:48:45 53° N 23:52:50 10° ENE
CZ-4 R/B 4.4 23:44:22 10° NNE 23:48:59 45° E 23:50:41 32° SSE
Cosmos 1606 Rocket 3.5 23:45:59 10° N 23:50:20 83° E 23:51:47 42° SSE
STARLINK-1271 4.0 23:47:37 10° WNW 23:51:46 63° NNE 23:55:53 10° E
Cosmos 1707 4.0 23:50:53 24° WSW 23:52:23 32° WNW 23:55:56 10° N
Cosmos 1655 Rocket 4.4 23:49:22 24° SW 23:53:01 55° WNW 23:59:11 10° N
STARLINK-1230 4.4 23:49:40 10° W 23:53:44 52° N 23:57:49 10° ENE
